• In Hungary
  • List of Countries
  • For 7 days
  • Water Temperature
  • Satellite Maps
  • Weather Map
  • News
  • Weather Widgets
  • user-avatar
    Login

    Hourly Weather Kazyvan

    Today, 17 January, Wednesday

    Time Temperature Precipitation Wind Pressure Humidity
    00:00 -14°C° 0 mm 4 mps 757 mmHg 83%
    01:00 -14°C° 0 mm 4 mps 756 mmHg 83%
    02:00 -14°C° 0 mm 4 mps 756 mmHg 82%
    03:00 -14°C° 0 mm 4 mps 756 mmHg 82%
    04:00 -14°C° 0 mm 4 mps 755 mmHg 82%
    05:00 -14°C° 0 mm 4 mps 755 mmHg 81%
    06:00 -14°C° 0 mm 4 mps 754 mmHg 81%
    07:00 -14°C° 0 mm 4 mps 754 mmHg 80%
    08:00 -14°C° 0 mm 4 mps 753 mmHg 79%
    09:00 -15°C° 0 mm 4 mps 753 mmHg 78%
    10:00 -14°C° 0 mm 5 mps 753 mmHg 74%
    11:00 -13°C° 0 mm 5 mps 752 mmHg 70%
    12:00 -12°C° 0 mm 5 mps 752 mmHg 67%
    13:00 -12°C° 0 mm 5 mps 752 mmHg 65%
    14:00 -12°C° 0 mm 5 mps 751 mmHg 64%
    15:00 -12°C° 0 mm 6 mps 751 mmHg 62%
    16:00 -12°C° 0 mm 6 mps 750 mmHg 65%
    17:00 -14°C° 0 mm 6 mps 750 mmHg 68%
    18:00 -14°C° 0 mm 6 mps 750 mmHg 71%
    19:00 -14°C° 0 mm 6 mps 750 mmHg 73%
    20:00 -14°C° 0 mm 6 mps 750 mmHg 76%
    21:00 -14°C° 0 mm 6 mps 749 mmHg 78%
    22:00 -14°C° 0 mm 6 mps 749 mmHg 80%
    23:00 -14°C° 0 mm 6 mps 749 mmHg 81%

    Tomorrow, 18 January, Thursday

    Time Temperature Precipitation Wind Pressure Humidity
    00:00 -14°C° 0 mm 6 mps 749 mmHg 83%
    01:00 -14°C° 0 mm 6 mps 749 mmHg 84%
    02:00 -14°C° 0 mm 6 mps 748 mmHg 84%
    03:00 -14°C° 0 mm 6 mps 748 mmHg 85%
    04:00 -14°C° 0 mm 6 mps 748 mmHg 85%
    05:00 -12°C° 0 mm 6 mps 748 mmHg 85%
    06:00 -12°C° 0 mm 6 mps 748 mmHg 85%
    07:00 -12°C° 0 mm 6 mps 747 mmHg 85%
    08:00 -13°C° 0 mm 7 mps 747 mmHg 85%
    09:00 -13°C° 0 mm 7 mps 747 mmHg 85%
    10:00 -12°C° 0 mm 7 mps 747 mmHg 84%
    11:00 -12°C° 0 mm 7 mps 747 mmHg 83%
    12:00 -11°C° 0 mm 7 mps 747 mmHg 82%
    13:00 -11°C° 0 mm 7 mps 747 mmHg 81%
    14:00 -11°C° 0 mm 7 mps 747 mmHg 81%
    15:00 -10°C° 0 mm 6 mps 747 mmHg 81%
    16:00 -11°C° 0 mm 6 mps 747 mmHg 80%
    17:00 -11°C° 0 mm 6 mps 747 mmHg 79%
    18:00 -12°C° 0 mm 6 mps 747 mmHg 79%
    19:00 -12°C° 0 mm 6 mps 747 mmHg 75%
    20:00 -14°C° 0 mm 6 mps 747 mmHg 72%
    21:00 -14°C° 0 mm 6 mps 747 mmHg 68%
    22:00 -15°C° 0 mm 6 mps 747 mmHg 69%
    23:00 -15°C° 0 mm 6 mps 747 mmHg 69%

    Day after tomorrow, 19 January, Friday

    Time Temperature Precipitation Wind Pressure Humidity
    00:00 -15°C° 0 mm 6 mps 747 mmHg 70%
    01:00 -16°C° 0 mm 6 mps 747 mmHg 73%
    02:00 -16°C° 0 mm 6 mps 747 mmHg 76%
    03:00 -16°C° 0 mm 6 mps 747 mmHg 80%
    04:00 -16°C° 0 mm 6 mps 747 mmHg 82%
    05:00 -16°C° 0 mm 6 mps 747 mmHg 84%
    06:00 -17°C° 0 mm 7 mps 746 mmHg 86%
    07:00 -15°C° 0 mm 7 mps 746 mmHg 86%
    08:00 -14°C° 0 mm 7 mps 747 mmHg 86%
    09:00 -14°C° 0 mm 7 mps 747 mmHg 86%
    10:00 -13°C° 0.1 mm 7 mps 747 mmHg 85%
    11:00 -12°C° 0.1 mm 7 mps 746 mmHg 85%
    12:00 -12°C° 0.1 mm 8 mps 746 mmHg 85%
    13:00 -12°C° 0.5 mm 8 mps 746 mmHg 87%
    14:00 -12°C° 0.5 mm 7 mps 746 mmHg 88%
    15:00 -11°C° 0.5 mm 7 mps 745 mmHg 90%
    16:00 -11°C° 0.5 mm 7 mps 745 mmHg 90%
    17:00 -11°C° 0.5 mm 7 mps 745 mmHg 90%
    18:00 -11°C° 0.5 mm 7 mps 745 mmHg 90%
    19:00 -11°C° 0.3 mm 7 mps 745 mmHg 90%
    20:00 -11°C° 0.3 mm 7 mps 745 mmHg 90%
    21:00 -11°C° 0.3 mm 7 mps 745 mmHg 89%
    22:00 -9°C° 0.1 mm 7 mps 745 mmHg 89%
    23:00 -9°C° 0.1 mm 7 mps 745 mmHg 89%

    20 January, Saturday

    Time Temperature Precipitation Wind Pressure Humidity
    00:00 -9°C° 0.1 mm 7 mps 745 mmHg 89%
    01:00 -9°C° 0.3 mm 7 mps 744 mmHg 90%
    02:00 -9°C° 0.3 mm 7 mps 744 mmHg 91%
    03:00 -8°C° 0.3 mm 7 mps 744 mmHg 91%
    04:00 -8°C° 0.3 mm 7 mps 743 mmHg 91%
    05:00 -7°C° 0.3 mm 7 mps 743 mmHg 91%
    06:00 -6°C° 0.3 mm 7 mps 743 mmHg 91%
    07:00 -5°C° 0.3 mm 6 mps 743 mmHg 92%
    08:00 -4°C° 0.3 mm 6 mps 743 mmHg 92%
    09:00 -4°C° 0.3 mm 6 mps 743 mmHg 93%
    10:00 -3°C° 0.2 mm 6 mps 743 mmHg 92%
    11:00 -2°C° 0.2 mm 5 mps 744 mmHg 90%
    12:00 -2°C° 0.2 mm 5 mps 744 mmHg 89%
    13:00 -2°C° 0.1 mm 5 mps 745 mmHg 89%
    14:00 -2°C° 0.1 mm 4 mps 745 mmHg 88%
    15:00 -2°C° 0.1 mm 4 mps 746 mmHg 87%
    16:00 -3°C° 0 mm 4 mps 747 mmHg 89%
    17:00 -4°C° 0 mm 4 mps 747 mmHg 90%
    18:00 -5°C° 0 mm 3 mps 748 mmHg 92%
    19:00 -6°C° 0 mm 3 mps 749 mmHg 92%
    20:00 -6°C° 0 mm 3 mps 750 mmHg 92%
    21:00 -7°C° 0 mm 3 mps 750 mmHg 93%
    22:00 -7°C° 0 mm 2 mps 751 mmHg 93%
    23:00 -7°C° 0 mm 2 mps 752 mmHg 93%

    21 January, Sunday

    Time Temperature Precipitation Wind Pressure Humidity
    00:00 -6°C° 0 mm 1 mps 752 mmHg 93%
    01:00 -7°C° 0 mm 2 mps 753 mmHg 93%
    02:00 -7°C° 0 mm 2 mps 753 mmHg 93%
    03:00 -6°C° 0 mm 2 mps 753 mmHg 92%
    04:00 -6°C° 0.1 mm 2 mps 753 mmHg 93%
    05:00 -6°C° 0.1 mm 3 mps 753 mmHg 93%
    06:00 -5°C° 0.1 mm 4 mps 753 mmHg 93%
    07:00 -5°C° 0.3 mm 4 mps 752 mmHg 93%
    08:00 -5°C° 0.3 mm 5 mps 752 mmHg 93%
    09:00 -4°C° 0.3 mm 6 mps 752 mmHg 94%
    10:00 -3°C° 0.1 mm 6 mps 751 mmHg 90%
    11:00 -2°C° 0.1 mm 7 mps 751 mmHg 85%
    12:00 -1°C° 0.1 mm 7 mps 751 mmHg 81%
    13:00 -1°C° 0 mm 7 mps 751 mmHg 79%
    14:00 -1°C° 0 mm 7 mps 750 mmHg 78%
    15:00 -1°C° 0 mm 8 mps 750 mmHg 76%
    16:00 -2°C° 0 mm 8 mps 750 mmHg 77%
    17:00 -2°C° 0 mm 8 mps 750 mmHg 79%
    18:00 -2°C° 0 mm 8 mps 750 mmHg 81%
    19:00 -2°C° 0 mm 8 mps 750 mmHg 82%
    20:00 -2°C° 0 mm 8 mps 750 mmHg 82%
    21:00 -2°C° 0 mm 8 mps 750 mmHg 83%
    22:00 -4°C° 0 mm 8 mps 750 mmHg 83%
    23:00 -3°C° 0 mm 7 mps 750 mmHg 84%

    22 January, Monday

    Time Temperature Precipitation Wind Pressure Humidity
    00:00 -3°C° 0 mm 7 mps 749 mmHg 84%
    01:00 -3°C° 0 mm 7 mps 749 mmHg 84%
    02:00 -3°C° 0 mm 7 mps 749 mmHg 84%
    03:00 -4°C° 0 mm 7 mps 749 mmHg 85%
    04:00 -4°C° 0 mm 7 mps 748 mmHg 86%
    05:00 -4°C° 0 mm 7 mps 748 mmHg 87%
    06:00 -6°C° 0 mm 7 mps 748 mmHg 87%
    07:00 -5°C° 0 mm 6 mps 748 mmHg 88%
    08:00 -5°C° 0 mm 6 mps 748 mmHg 88%
    09:00 -6°C° 0 mm 6 mps 748 mmHg 88%
    10:00 -5°C° 0 mm 6 mps 748 mmHg 88%
    11:00 -6°C° 0 mm 7 mps 747 mmHg 88%
    12:00 -6°C° 0 mm 7 mps 747 mmHg 88%
    13:00 -4°C° 0 mm 6 mps 747 mmHg 88%
    14:00 -4°C° 0 mm 6 mps 747 mmHg 88%
    15:00 -4°C° 0 mm 6 mps 746 mmHg 88%
    16:00 -4°C° 0.1 mm 6 mps 746 mmHg 89%
    17:00 -2°C° 0.1 mm 5 mps 747 mmHg 89%
    18:00 -2°C° 0.1 mm 5 mps 747 mmHg 90%
    19:00 -2°C° 0 mm 5 mps 747 mmHg 90%
    20:00 -2°C° 0 mm 5 mps 747 mmHg 90%
    21:00 -2°C° 0 mm 5 mps 747 mmHg 90%
    22:00 -2°C° 0 mm 5 mps 747 mmHg 90%
    23:00 -2°C° 0 mm 5 mps 747 mmHg 90%
    Show more